Time,TemperatureF,DewpointF,PressureIn,WindDirection,WindDirectionDegrees,WindSpeedMPH,WindSpeedGustMPH,Humidity,HourlyPrecipIn,Conditions,Clouds,dailyrainin,SoftwareType,DateUTC
2013-02-01 00:03:00,15.0,11.0,30.01,WSW,241,8.0,14.0,83,0.00,,,0.00,,2013-02-01 05:03:00,
2013-02-01 00:12:00,15.0,11.0,30.01,WSW,241,8.0,14.0,83,0.00,,,0.00,,2013-02-01 05:12:00,
2013-02-01 00:22:00,15.0,11.0,30.01,WSW,241,8.0,14.0,83,0.00,,,0.00,,2013-02-01 05:22:00,
2013-02-01 00:32:00,14.0,10.0,30.02,West,265,8.0,17.0,83,0.00,,,0.00,,2013-02-01 05:32:00,
2013-02-01 00:42:00,14.0,10.0,30.02,West,265,8.0,17.0,83,0.00,,,0.00,,2013-02-01 05:42:00,
2013-02-01 00:52:00,14.0,10.0,30.03,WSW,243,8.0,17.0,83,0.00,,,0.00,,2013-02-01 05:52:00,
2013-02-01 01:02:00,14.0,10.0,30.03,West,272,7.0,17.0,84,0.00,,,0.00,,2013-02-01 06:02:00,
2013-02-01 01:12:00,14.0,10.0,30.03,West,272,7.0,17.0,84,0.00,,,0.00,,2013-02-01 06:12:00,
2013-02-01 01:22:00,14.0,10.0,30.04,West,263,8.0,17.0,83,0.00,,,0.00,,2013-02-01 06:22:00,
2013-02-01 01:32:00,14.0,10.0,30.05,West,259,8.0,16.0,83,0.00,,,0.00,,2013-02-01 06:32:00,
2013-02-01 01:42:00,14.0,10.0,30.05,West,259,8.0,16.0,83,0.00,,,0.00,,2013-02-01 06:42:00,
2013-02-01 01:52:00,13.0,9.0,30.05,WSW,254,8.0,16.0,83,0.00,,,0.00,,2013-02-01 06:52:00,
2013-02-01 02:02:00,13.0,9.0,30.05,WSW,254,8.0,16.0,83,0.00,,,0.00,,2013-02-01 07:02:00,
2013-02-01 02:12:00,13.0,9.0,30.05,WSW,254,8.0,16.0,83,0.00,,,0.00,,2013-02-01 07:12:00,
2013-02-01 02:22:00,13.0,9.0,30.07,West,260,7.0,15.0,83,0.00,,,0.00,,2013-02-01 07:22:00,
2013-02-01 02:32:00,13.0,9.0,30.08,SW,235,6.0,16.0,83,0.00,,,0.00,,2013-02-01 07:32:00,
2013-02-01 02:42:00,13.0,9.0,30.08,SW,235,6.0,16.0,83,0.00,,,0.00,,2013-02-01 07:42:00,
2013-02-01 02:52:00,12.0,8.0,30.09,WSW,243,9.0,17.0,82,0.00,,,0.00,,2013-02-01 07:52:00,
2013-02-01 03:01:00,12.0,8.0,30.09,WSW,243,9.0,17.0,82,0.00,,,0.00,,2013-02-01 08:01:00,
2013-02-01 03:11:00,12.0,8.0,30.09,WSW,243,9.0,17.0,82,0.00,,,0.00,,2013-02-01 08:11:00,
2013-02-01 03:21:00,12.0,8.0,30.10,WSW,250,8.0,18.0,82,0.00,,,0.00,,2013-02-01 08:21:00,
2013-02-01 03:32:00,12.0,8.0,30.11,West,263,6.0,15.0,82,0.00,,,0.00,,2013-02-01 08:32:00,
2013-02-01 03:42:00,12.0,8.0,30.11,West,263,6.0,15.0,82,0.00,,,0.00,,2013-02-01 08:42:00,
2013-02-01 03:52:00,12.0,8.0,30.12,WSW,258,8.0,17.0,82,0.00,,,0.00,,2013-02-01 08:52:00,
2013-02-01 04:02:00,11.0,7.0,30.13,WSW,257,10.0,21.0,82,0.00,,,0.00,,2013-02-01 09:02:00,
2013-02-01 04:11:00,11.0,7.0,30.13,WSW,257,10.0,21.0,82,0.00,,,0.00,,2013-02-01 09:11:00,
2013-02-01 04:21:00,11.0,7.0,30.13,West,263,11.0,20.0,83,0.00,,,0.00,,2013-02-01 09:21:00,
2013-02-01 04:32:00,11.0,7.0,30.15,WSW,244,8.0,17.0,82,0.00,,,0.00,,2013-02-01 09:32:00,
2013-02-01 04:42:00,11.0,7.0,30.15,WSW,244,8.0,17.0,82,0.00,,,0.00,,2013-02-01 09:42:00,
2013-02-01 04:51:00,11.0,6.0,30.15,WSW,246,10.0,20.0,81,0.00,,,0.00,,2013-02-01 09:51:00,
2013-02-01 05:01:00,11.0,6.0,30.16,SW,235,9.0,18.0,81,0.00,,,0.00,,2013-02-01 10:01:00,
2013-02-01 05:11:00,11.0,6.0,30.16,SW,235,9.0,18.0,81,0.00,,,0.00,,2013-02-01 10:11:00,
2013-02-01 05:21:00,11.0,6.0,30.17,WSW,239,7.0,18.0,81,0.00,,,0.00,,2013-02-01 10:21:00,
2013-02-01 05:32:00,10.0,5.0,30.18,WSW,244,9.0,16.0,81,0.00,,,0.00,,2013-02-01 10:32:00,
2013-02-01 05:42:00,10.0,5.0,30.18,WSW,244,9.0,16.0,81,0.00,,,0.00,,2013-02-01 10:42:00,
2013-02-01 05:53:00,10.0,5.0,30.19,West,264,8.0,20.0,81,0.00,,,0.00,,2013-02-01 10:53:00,
2013-02-01 06:02:00,10.0,5.0,30.20,WSW,248,9.0,22.0,81,0.00,,,0.00,,2013-02-01 11:02:00,
2013-02-01 06:11:00,10.0,5.0,30.20,WSW,248,9.0,22.0,81,0.00,,,0.00,,2013-02-01 11:11:00,
2013-02-01 06:22:00,10.0,5.0,30.21,WSW,244,8.0,15.0,81,0.00,,,0.00,,2013-02-01 11:22:00,
2013-02-01 06:32:00,10.0,5.0,30.22,SW,223,7.0,15.0,81,0.00,,,0.00,,2013-02-01 11:32:00,
2013-02-01 06:42:00,10.0,5.0,30.22,SW,223,7.0,15.0,81,0.00,,,0.00,,2013-02-01 11:42:00,
2013-02-01 06:53:00,10.0,5.0,30.23,West,270,10.0,18.0,81,0.00,,,0.00,,2013-02-01 11:53:00,
2013-02-01 07:03:00,9.0,4.0,30.23,West,261,8.0,15.0,81,0.00,,,0.00,,2013-02-01 12:03:00,
2013-02-01 07:12:00,9.0,4.0,30.23,West,261,8.0,15.0,81,0.00,,,0.00,,2013-02-01 12:12:00,
2013-02-01 07:23:00,9.0,4.0,30.24,WSW,239,7.0,14.0,81,0.00,,,0.00,,2013-02-01 12:23:00,
2013-02-01 07:32:00,9.0,4.0,30.25,SW,236,5.0,16.0,81,0.00,,,0.00,,2013-02-01 12:32:00,
2013-02-01 07:42:00,9.0,4.0,30.25,SW,236,5.0,16.0,81,0.00,,,0.00,,2013-02-01 12:42:00,
2013-02-01 07:52:00,9.0,4.0,30.26,WSW,245,6.0,19.0,80,0.00,,,0.00,,2013-02-01 12:52:00,
2013-02-01 08:02:00,9.0,4.0,30.26,West,267,7.0,18.0,81,0.00,,,0.00,,2013-02-01 13:02:00,
2013-02-01 08:12:00,9.0,4.0,30.26,West,267,7.0,18.0,81,0.00,,,0.00,,2013-02-01 13:12:00,
2013-02-01 08:22:00,9.0,4.0,30.27,WSW,244,7.0,15.0,81,0.00,,,0.00,,2013-02-01 13:22:00,
2013-02-01 08:33:00,9.0,4.0,30.27,WSW,244,7.0,15.0,81,0.00,,,0.00,,2013-02-01 13:33:00,
2013-02-01 08:42:00,9.0,4.0,30.27,WSW,244,7.0,15.0,81,0.00,,,0.00,,2013-02-01 13:42:00,
2013-02-01 08:52:00,9.0,4.0,30.29,WSW,240,8.0,19.0,79,0.00,,,0.00,,2013-02-01 13:52:00,
2013-02-01 09:03:00,9.0,4.0,30.29,WSW,251,7.0,15.0,79,0.00,,,0.00,,2013-02-01 14:03:00,
2013-02-01 09:12:00,9.0,4.0,30.29,WSW,251,7.0,15.0,79,0.00,,,0.00,,2013-02-01 14:12:00,
2013-02-01 09:22:00,10.0,5.0,30.31,SW,236,6.0,19.0,79,0.00,,,0.00,,2013-02-01 14:22:00,
2013-02-01 09:32:00,10.0,5.0,30.31,SW,214,9.0,18.0,78,0.00,,,0.00,,2013-02-01 14:32:00,
2013-02-01 09:42:00,10.0,5.0,30.31,SW,214,9.0,18.0,78,0.00,,,0.00,,2013-02-01 14:42:00,
2013-02-01 09:52:00,11.0,5.0,30.32,WSW,238,8.0,17.0,77,0.00,,,0.00,,2013-02-01 14:52:00,
2013-02-01 10:03:00,11.0,5.0,30.32,SW,236,8.0,20.0,77,0.00,,,0.00,,2013-02-01 15:03:00,
2013-02-01 10:12:00,12.0,6.0,30.32,West,270,7.0,19.0,76,0.00,,,0.00,,2013-02-01 15:12:00,
2013-02-01 10:22:00,12.0,6.0,30.32,West,270,7.0,19.0,76,0.00,,,0.00,,2013-02-01 15:22:00,
2013-02-01 10:33:00,12.0,6.0,30.33,SW,226,7.0,15.0,76,0.00,,,0.00,,2013-02-01 15:33:00,
2013-02-01 10:42:00,12.0,6.0,30.33,SW,226,7.0,15.0,76,0.00,,,0.00,,2013-02-01 15:42:00,
2013-02-01 10:52:00,13.0,7.0,30.33,WNW,290,9.0,17.0,75,0.00,,,0.00,,2013-02-01 15:52:00,
2013-02-01 11:03:00,13.0,6.0,30.33,WNW,285,7.0,16.0,73,0.00,,,0.00,,2013-02-01 16:03:00,
2013-02-01 11:11:00,14.0,7.0,30.34,SW,217,7.0,16.0,72,0.00,,,0.00,,2013-02-01 16:11:00,
2013-02-01 11:22:00,14.0,7.0,30.34,SW,217,7.0,16.0,72,0.00,,,0.00,,2013-02-01 16:22:00,
2013-02-01 11:33:00,14.0,7.0,30.35,SW,220,10.0,18.0,72,0.00,,,0.00,,2013-02-01 16:33:00,
2013-02-01 11:43:00,15.0,7.0,30.35,WSW,242,8.0,17.0,71,0.00,,,0.00,,2013-02-01 16:43:00,
2013-02-01 11:52:00,15.0,7.0,30.35,WSW,242,8.0,17.0,71,0.00,,,0.00,,2013-02-01 16:52:00,
2013-02-01 12:03:00,16.0,8.0,30.35,West,273,10.0,16.0,70,0.00,,,0.00,,2013-02-01 17:03:00,
2013-02-01 12:12:00,16.0,8.0,30.35,West,273,10.0,16.0,70,0.00,,,0.00,,2013-02-01 17:12:00,
2013-02-01 12:22:00,16.0,8.0,30.35,West,259,7.0,17.0,70,0.00,,,0.00,,2013-02-01 17:22:00,
2013-02-01 12:32:00,16.0,9.0,30.35,SW,228,8.0,16.0,72,0.00,,,0.00,,2013-02-01 17:32:00,
2013-02-01 12:42:00,16.0,9.0,30.35,SW,228,8.0,16.0,72,0.00,,,0.00,,2013-02-01 17:42:00,
2013-02-01 12:53:00,16.0,8.0,30.35,West,274,8.0,17.0,70,0.00,,,0.00,,2013-02-01 17:53:00,
2013-02-01 13:03:00,17.0,9.0,30.35,West,269,7.0,18.0,70,0.00,,,0.00,,2013-02-01 18:03:00,
2013-02-01 13:12:00,17.0,9.0,30.35,West,269,7.0,18.0,70,0.00,,,0.00,,2013-02-01 18:12:00,
2013-02-01 13:23:00,16.0,7.0,30.35,West,261,7.0,18.0,68,0.00,,,0.00,,2013-02-01 18:23:00,
2013-02-01 13:32:00,16.0,9.0,30.35,WSW,254,6.0,17.0,72,0.00,,,0.00,,2013-02-01 18:32:00,
2013-02-01 13:42:00,16.0,9.0,30.35,WSW,254,6.0,17.0,72,0.00,,,0.00,,2013-02-01 18:42:00,
2013-02-01 13:53:00,17.0,9.0,30.35,WSW,253,5.0,19.0,70,0.00,,,0.00,,2013-02-01 18:53:00,
2013-02-01 14:03:00,16.0,8.0,30.35,WSW,252,6.0,13.0,70,0.00,,,0.00,,2013-02-01 19:03:00,
2013-02-01 14:12:00,16.0,8.0,30.35,WSW,252,6.0,13.0,70,0.00,,,0.00,,2013-02-01 19:12:00,
2013-02-01 14:22:00,16.0,8.0,30.35,WSW,250,6.0,14.0,69,0.00,,,0.00,,2013-02-01 19:22:00,
2013-02-01 14:32:00,15.0,7.0,30.35,WSW,244,8.0,18.0,70,0.00,,,0.00,,2013-02-01 19:32:00,
2013-02-01 14:42:00,15.0,7.0,30.35,WSW,244,8.0,18.0,70,0.00,,,0.00,,2013-02-01 19:42:00,
2013-02-01 14:52:00,15.0,7.0,30.35,West,278,8.0,18.0,71,0.00,,,0.00,,2013-02-01 19:52:00,
2013-02-01 15:02:00,15.0,8.0,30.35,West,259,7.0,14.0,73,0.00,,,0.00,,2013-02-01 20:02:00,
2013-02-01 15:11:00,15.0,7.0,30.35,WSW,245,4.0,15.0,71,0.00,,,0.00,,2013-02-01 20:11:00,
2013-02-01 15:22:00,15.0,7.0,30.35,WSW,245,4.0,15.0,71,0.00,,,0.00,,2013-02-01 20:22:00,
2013-02-01 15:32:00,15.0,7.0,30.35,West,273,6.0,15.0,71,0.00,,,0.00,,2013-02-01 20:32:00,
2013-02-01 15:42:00,15.0,7.0,30.35,West,273,6.0,15.0,71,0.00,,,0.00,,2013-02-01 20:42:00,
2013-02-01 15:52:00,15.0,7.0,30.35,SW,224,7.0,14.0,70,0.00,,,0.00,,2013-02-01 20:52:00,
2013-02-01 16:02:00,15.0,7.0,30.35,WSW,257,5.0,12.0,70,0.00,,,0.00,,2013-02-01 21:02:00,
2013-02-01 16:12:00,15.0,7.0,30.35,WSW,257,5.0,12.0,70,0.00,,,0.00,,2013-02-01 21:12:00,
2013-02-01 16:22:00,15.0,6.0,30.35,SSW,194,8.0,12.0,68,0.00,,,0.00,,2013-02-01 21:22:00,
2013-02-01 16:32:00,15.0,7.0,30.36,South,184,7.0,11.0,70,0.00,,,0.00,,2013-02-01 21:32:00,
2013-02-01 16:42:00,15.0,7.0,30.36,South,184,7.0,11.0,70,0.00,,,0.00,,2013-02-01 21:42:00,
2013-02-01 16:52:00,14.0,6.0,30.35,West,259,6.0,14.0,71,0.00,,,0.00,,2013-02-01 21:52:00,
2013-02-01 17:02:00,13.0,7.0,30.36,SW,232,3.0,17.0,78,0.00,,,0.00,,2013-02-01 22:02:00,
2013-02-01 17:11:00,13.0,7.0,30.36,SW,232,3.0,17.0,78,0.00,,,0.00,,2013-02-01 22:11:00,
2013-02-01 17:22:00,13.0,6.0,30.36,SW,217,6.0,15.0,73,0.00,,,0.00,,2013-02-01 22:22:00,
2013-02-01 17:32:00,13.0,7.0,30.36,SW,236,4.0,14.0,76,0.00,,,0.00,,2013-02-01 22:32:00,
2013-02-01 17:42:00,13.0,7.0,30.36,SW,236,4.0,14.0,76,0.00,,,0.00,,2013-02-01 22:42:00,
2013-02-01 17:52:00,12.0,7.0,30.36,West,277,4.0,12.0,80,0.00,,,0.00,,2013-02-01 22:52:00,
2013-02-01 18:02:00,13.0,7.0,30.36,WSW,238,4.0,13.0,77,0.00,,,0.00,,2013-02-01 23:02:00,
2013-02-01 18:11:00,13.0,7.0,30.36,WSW,238,4.0,13.0,77,0.00,,,0.00,,2013-02-01 23:11:00,
2013-02-01 18:22:00,12.0,7.0,30.36,SW,219,6.0,11.0,79,0.00,,,0.00,,2013-02-01 23:22:00,
2013-02-01 18:32:00,12.0,7.0,30.36,SSW,200,5.0,11.0,80,0.00,,,0.00,,2013-02-01 23:32:00,
2013-02-01 18:42:00,12.0,7.0,30.36,SSW,200,5.0,11.0,80,0.00,,,0.00,,2013-02-01 23:42:00,
2013-02-01 18:52:00,13.0,8.0,30.36,SW,223,3.0,14.0,79,0.00,,,0.00,,2013-02-01 23:52:00,
2013-02-01 19:02:00,13.0,7.0,30.36,SW,218,6.0,12.0,78,0.00,,,0.00,,2013-02-02 00:02:00,
2013-02-01 19:11:00,13.0,7.0,30.36,SW,218,6.0,12.0,78,0.00,,,0.00,,2013-02-02 00:11:00,
2013-02-01 19:22:00,13.0,7.0,30.36,WSW,246,3.0,11.0,77,0.00,,,0.00,,2013-02-02 00:22:00,
2013-02-01 19:32:00,13.0,7.0,30.36,SW,226,5.0,11.0,75,0.00,,,0.00,,2013-02-02 00:32:00,
2013-02-01 19:42:00,13.0,7.0,30.36,SW,226,5.0,11.0,75,0.00,,,0.00,,2013-02-02 00:42:00,
2013-02-01 19:52:00,13.0,7.0,30.36,West,259,4.0,9.0,76,0.00,,,0.00,,2013-02-02 00:52:00,
2013-02-01 20:02:00,13.0,7.0,30.36,SW,227,2.0,8.0,76,0.00,,,0.00,,2013-02-02 01:02:00,
2013-02-01 20:11:00,13.0,7.0,30.36,SW,227,2.0,8.0,76,0.00,,,0.00,,2013-02-02 01:11:00,
2013-02-01 20:21:00,13.0,7.0,30.36,SW,231,3.0,8.0,77,0.00,,,0.00,,2013-02-02 01:21:00,
2013-02-01 20:32:00,14.0,8.0,30.35,South,189,3.0,9.0,78,0.00,,,0.00,,2013-02-02 01:32:00,
2013-02-01 20:42:00,14.0,8.0,30.35,South,189,3.0,9.0,78,0.00,,,0.00,,2013-02-02 01:42:00,
2013-02-01 20:52:00,14.0,8.0,30.35,SSW,209,5.0,11.0,77,0.00,,,0.00,,2013-02-02 01:52:00,
2013-02-01 21:01:00,14.0,8.0,30.35,SSW,196,4.0,11.0,77,0.00,,,0.00,,2013-02-02 02:01:00,
2013-02-01 21:11:00,14.0,8.0,30.35,SSW,196,4.0,11.0,77,0.00,,,0.00,,2013-02-02 02:11:00,
2013-02-01 21:22:00,14.0,8.0,30.34,SW,215,3.0,10.0,77,0.00,,,0.00,,2013-02-02 02:22:00,
2013-02-01 21:32:00,14.0,8.0,30.34,South,182,4.0,7.0,78,0.00,,,0.00,,2013-02-02 02:32:00,
2013-02-01 21:42:00,14.0,8.0,30.34,South,182,4.0,7.0,78,0.00,,,0.00,,2013-02-02 02:42:00,
2013-02-01 21:52:00,14.0,8.0,30.33,South,173,1.0,8.0,77,0.00,,,0.00,,2013-02-02 02:52:00,
2013-02-01 22:02:00,14.0,8.0,30.33,SSW,209,3.0,7.0,77,0.00,,,0.00,,2013-02-02 03:02:00,
2013-02-01 22:11:00,14.0,8.0,30.33,SSW,209,3.0,7.0,77,0.00,,,0.00,,2013-02-02 03:11:00,
2013-02-01 22:22:00,14.0,8.0,30.34,SSW,205,3.0,7.0,77,0.00,,,0.00,,2013-02-02 03:22:00,
2013-02-01 22:32:00,14.0,8.0,30.34,SW,217,2.0,8.0,77,0.00,,,0.00,,2013-02-02 03:32:00,
2013-02-01 22:42:00,14.0,8.0,30.33,South,188,4.0,8.0,78,0.00,,,0.00,,2013-02-02 03:42:00,
2013-02-01 22:52:00,14.0,8.0,30.33,South,188,4.0,8.0,78,0.00,,,0.00,,2013-02-02 03:52:00,
2013-02-01 23:02:00,14.0,8.0,30.33,SSW,209,3.0,9.0,78,0.00,,,0.00,,2013-02-02 04:02:00,
2013-02-01 23:11:00,14.0,8.0,30.33,SSW,209,3.0,9.0,78,0.00,,,0.00,,2013-02-02 04:11:00,
2013-02-01 23:22:00,14.0,8.0,30.32,SW,218,4.0,7.0,78,0.00,,,0.00,,2013-02-02 04:22:00,
2013-02-01 23:32:00,14.0,9.0,30.32,SW,215,3.0,7.0,79,0.00,,,0.00,,2013-02-02 04:32:00,
2013-02-01 23:42:00,14.0,9.0,30.32,SW,215,3.0,7.0,79,0.00,,,0.00,,2013-02-02 04:42:00,
2013-02-01 23:52:00,14.0,9.0,30.31,SSE,156,3.0,7.0,80,0.00,,,0.00,,2013-02-02 04:52:00,